Location: Newark
(51.2625°N, 13.3939°E)
Time: 18:46:07
(UTC+00:00)

deb Explorer IX - Pass Details

Date: 17 November 2019
Orbit: 545 x 1105 km, 38.8° (Epoch: 08 December)

Event Time Altitude Azimuth Distance (km) Brightness Sun altitude
Rises 01:11:45 0° 219° (SW) 3,551 - -47.4°
Reaches altitude 10° 01:15:29 10° 199° (SSW) 2,487 - -47.0°
Maximum altitude 01:18:52 16° 164° (SSE) 1,990 - -46.5°
Drops below altitude 10° 01:22:00 10° 128° (SE) 2,259 - -46.1°
Sets 01:25:09 0° 106° (ESE) 3,068 - -45.7°
